START_TIME,STEP,MOV.,P11,t_acc.,P23,t_acc.,P27,t_acc.,A4,t_acc.
1980-11-15 18:00:11.690 ,1,0,0.,4.8,0.,4.8,1.,4.8,0.,4.8
1980-11-15 18:00:16.490 ,1,0,0.,4.8,0.,4.8,0.,4.8,0.,4.8
1980-11-15 18:00:21.290 ,1,0,1.,4.8,0.,4.8,0.,4.8,0.,4.8
1980-11-15 18:00:26.090 ,1,0,0.,4.8,0.,4.8,0.,4.8,0.,4.8
1980-11-15 18:00:30.890 ,1,0,0.,4.8,0.,4.8,0.,4.8,0.,4.8
1980-11-15 18:00:35.690 ,2,0,0.,4.8,0.,4.8,0.,4.8,0.,4.8
1980-11-15 18:00:40.490 ,2,0,1.,4.8,0.,4.8,0.,4.8,0.,4.8
1980-11-15 18:00:45.290 ,2,0,0.,4.8,0.,4.8,0.,4.8,0.,4.8
1980-11-15 18:00:50.090 ,2,0,0.,4.8,0.,4.8,0.,4.8,0.,4.8
1980-11-15 18:00:54.890 ,2,0,0.,4.8,0.,4.8,0.,4.8,0.,4.8
1980-11-15 18:00:59.690 ,2,0,0.,4.8,0.,4.8,0.,4.8,0.,4.8
1980-11-15 18:01:04.490 ,2,0,0.,4.8,0.,4.8,0.,4.8,0.,4.8
1980-11-15 18:01:09.290 ,2,0,1.,4.8,0.,4.8,0.,4.8,0.,4.8
1980-11-15 18:01:14.090 ,2,0,1.,4.8,0.,4.8,0.,4.8,0.,4.8
1980-11-15 18:01:18.890 ,2,0,2.,4.8,0.,4.8,0.,4.8,0.,4.8
1980-11-15 18:01:23.690 ,3,0,0.,4.8,0.,4.8,0.,4.8,0.,4.8
1980-11-15 18:01:28.490 ,3,0,1.,4.8,0.,4.8,0.,4.8,0.,4.8
1980-11-15 18:01:33.290 ,3,0,0.,4.8,0.,4.8,0.,4.8,0.,4.8
1980-11-15 18:01:38.090 ,3,0,0.,4.8,0.,4.8,0.,4.8,0.,4.8
1980-11-15 18:01:42.890 ,3,0,0.,4.8,0.,4.8,0.,4.8,0.,4.8
1980-11-15 18:01:47.690 ,0,0,2.,4.8,1.,4.8,1.,4.8,0.,4.8
1980-11-15 18:01:52.490 ,0,0,0.,4.8,0.,4.8,0.,4.8,0.,4.8
1980-11-15 18:01:57.290 ,0,0,0.,4.8,0.,4.8,0.,4.8,0.,4.8
1980-11-15 18:02:02.090 ,0,0,1.,4.8,0.,4.8,0.,4.8,0.,4.8
1980-11-15 18:02:06.890 ,0,0,0.,4.8,0.,4.8,0.,4.8,0.,4.8
1980-11-15 18:02:36.890 ,0,0,,0,,0,,0,,0
1980-11-15 18:02:41.690 ,0,0,0.,4.8,0.,4.8,0.,4.8,0.,4.8
1980-11-15 18:02:46.490 ,0,0,1.,4.8,0.,4.8,0.,4.8,0.,4.8
1980-11-15 18:02:51.290 ,0,0,0.,4.8,0.,4.8,0.,4.8,0.,4.8
1980-11-15 18:02:56.090 ,0,0,1.,4.8,0.,4.8,0.,4.8,0.,4.8
1980-11-15 18:02:59.690 ,5,0,1.,4.8,0.,4.8,0.,4.8,0.,4.8
1980-11-15 18:03:04.490 ,5,0,1.,4.8,0.,4.8,0.,4.8,0.,4.8
1980-11-15 18:03:09.290 ,5,0,1.,4.8,0.,4.8,1.,4.8,0.,4.8
1980-11-15 18:03:14.090 ,5,0,0.,4.8,0.,4.8,0.,4.8,0.,4.8
1980-11-15 18:03:18.890 ,5,0,1.,4.8,1.,4.8,0.,4.8,0.,4.8
1980-11-15 18:03:23.690 ,5,0,1.,4.8,0.,4.8,0.,4.8,0.,4.8
1980-11-15 18:03:28.490 ,5,0,0.,4.8,0.,4.8,0.,4.8,0.,4.8
1980-11-15 18:03:33.290 ,5,0,1.,4.8,0.,4.8,0.,4.8,0.,4.8
1980-11-15 18:03:38.090 ,5,0,1.,4.8,0.,4.8,0.,4.8,0.,4.8
1980-11-15 18:03:42.890 ,5,0,0.,4.8,0.,4.8,0.,4.8,0.,4.8
1980-11-15 18:03:47.690 ,6,0,0.,4.8,0.,4.8,0.,4.8,0.,4.8
1980-11-15 18:03:52.490 ,6,0,0.,4.8,0.,4.8,0.,4.8,0.,4.8
1980-11-15 18:03:57.290 ,6,0,0.,4.8,0.,4.8,1.,4.8,0.,4.8
1980-11-15 18:04:02.090 ,6,0,0.,4.8,0.,4.8,0.,4.8,0.,4.8
1980-11-15 18:04:06.890 ,6,0,1.,4.8,0.,4.8,0.,4.8,0.,4.8
1980-11-15 18:04:11.690 ,6,0,1.,4.8,1.,4.8,1.,4.8,0.,4.8
1980-11-15 18:04:16.490 ,6,0,0.,4.8,0.,4.8,0.,4.8,0.,4.8
1980-11-15 18:04:21.290 ,6,0,0.,4.8,0.,4.8,0.,4.8,0.,4.8
1980-11-15 18:04:26.090 ,6,0,0.,4.8,0.,4.8,0.,4.8,0.,4.8
1980-11-15 18:04:30.890 ,6,0,1.,4.8,0.,4.8,1.,4.8,0.,4.8
1980-11-15 18:04:35.690 ,7,0,0.,4.8,0.,4.8,0.,4.8,0.,4.8
1980-11-15 18:04:40.490 ,7,0,1.,4.8,0.,4.8,0.,4.8,0.,4.8
1980-11-15 18:04:45.290 ,7,0,0.,4.8,0.,4.8,0.,4.8,0.,4.8
1980-11-15 18:04:50.090 ,7,0,1.,4.8,0.,4.8,0.,4.8,0.,4.8
1980-11-15 18:04:54.890 ,7,0,1.,4.8,0.,4.8,0.,4.8,0.,4.8
1980-11-15 18:04:59.690 ,7,0,0.,4.8,0.,4.8,0.,4.8,0.,4.8
1980-11-15 18:05:04.490 ,7,0,0.,4.8,0.,4.8,0.,4.8,0.,4.8
1980-11-15 18:05:09.290 ,7,0,0.,4.8,0.,4.8,0.,4.8,0.,4.8
1980-11-15 18:05:14.090 ,7,0,0.,4.8,0.,4.8,0.,4.8,0.,4.8
1980-11-15 18:05:18.890 ,7,0,0.,4.8,0.,4.8,0.,4.8,0.,4.8
1980-11-15 18:05:23.690 ,7,0,0.,4.8,0.,4.8,0.,4.8,0.,4.8
1980-11-15 18:05:28.490 ,7,0,0.,4.8,0.,4.8,0.,4.8,0.,4.8
1980-11-15 18:05:33.290 ,7,0,1.,4.8,0.,4.8,0.,4.8,0.,4.8
1980-11-15 18:05:38.090 ,7,0,0.,4.8,0.,4.8,0.,4.8,0.,4.8
1980-11-15 18:05:42.890 ,7,0,0.,4.8,0.,4.8,0.,4.8,0.,4.8
1980-11-15 18:05:47.690 ,7,0,1.,4.8,0.,4.8,0.,4.8,0.,4.8
1980-11-15 18:05:52.490 ,7,0,1.,4.8,0.,4.8,0.,4.8,0.,4.8
1980-11-15 18:05:57.290 ,7,0,0.,4.8,0.,4.8,0.,4.8,0.,4.8
1980-11-15 18:06:02.090 ,7,0,0.,4.8,0.,4.8,0.,4.8,0.,4.8
1980-11-15 18:06:06.890 ,7,0,1.,4.8,0.,4.8,0.,4.8,0.,4.8
1980-11-15 18:06:11.690 ,6,0,0.,4.8,0.,4.8,0.,4.8,0.,4.8
1980-11-15 18:06:16.490 ,6,0,0.,4.8,0.,4.8,0.,4.8,0.,4.8
1980-11-15 18:06:21.290 ,6,0,0.,4.8,0.,4.8,0.,4.8,0.,4.8
1980-11-15 18:06:26.090 ,6,0,1.,4.8,0.,4.8,0.,4.8,0.,4.8
1980-11-15 18:06:30.890 ,6,0,0.,4.8,0.,4.8,1.,4.8,0.,4.8
1980-11-15 18:06:35.690 ,6,0,0.,4.8,0.,4.8,0.,4.8,0.,4.8
1980-11-15 18:06:40.490 ,6,0,0.,4.8,0.,4.8,0.,4.8,0.,4.8
1980-11-15 18:06:45.290 ,6,0,0.,4.8,0.,4.8,0.,4.8,0.,4.8
1980-11-15 18:06:50.090 ,6,0,1.,4.8,0.,4.8,0.,4.8,0.,4.8
1980-11-15 18:06:54.890 ,6,0,0.,4.8,0.,4.8,0.,4.8,0.,4.8
1980-11-15 18:06:59.690 ,5,0,0.,4.8,1.,4.8,0.,4.8,0.,4.8
1980-11-15 18:07:04.490 ,5,0,0.,4.8,0.,4.8,0.,4.8,0.,4.8
1980-11-15 18:07:09.290 ,5,0,0.,4.8,0.,4.8,0.,4.8,0.,4.8
1980-11-15 18:07:14.090 ,5,0,0.,4.8,1.,4.8,1.,4.8,0.,4.8
1980-11-15 18:07:18.890 ,5,0,0.,4.8,0.,4.8,0.,4.8,0.,4.8
1980-11-15 18:07:23.690 ,5,0,0.,4.8,0.,4.8,0.,4.8,0.,4.8
1980-11-15 18:07:28.490 ,5,0,0.,4.8,0.,4.8,0.,4.8,0.,4.8
1980-11-15 18:07:33.290 ,5,0,1.,4.8,0.,4.8,0.,4.8,0.,4.8
1980-11-15 18:07:38.090 ,5,0,1.,4.8,0.,4.8,0.,4.8,0.,4.8
1980-11-15 18:07:42.890 ,5,0,1.,4.8,0.,4.8,0.,4.8,0.,4.8
1980-11-15 18:07:47.690 ,4,0,1.,4.8,0.,4.8,0.,4.8,0.,4.8
1980-11-15 18:07:52.490 ,4,0,0.,4.8,0.,4.8,0.,4.8,0.,4.8
1980-11-15 18:07:57.290 ,4,0,0.,4.8,0.,4.8,0.,4.8,0.,4.8
1980-11-15 18:08:02.090 ,4,0,0.,4.8,0.,4.8,0.,4.8,0.,4.8
1980-11-15 18:08:06.890 ,4,0,1.,4.8,0.,4.8,0.,4.8,0.,4.8
1980-11-15 18:08:11.690 ,4,0,0.,4.8,0.,4.8,0.,4.8,0.,4.8
1980-11-15 18:08:16.490 ,4,0,1.,4.8,0.,4.8,0.,4.8,0.,4.8
1980-11-15 18:08:21.290 ,4,0,1.,4.8,0.,4.8,0.,4.8,0.,4.8
1980-11-15 18:08:26.090 ,4,0,0.,4.8,0.,4.8,0.,4.8,0.,4.8
1980-11-15 18:08:30.890 ,4,0,0.,4.8,0.,4.8,0.,4.8,0.,4.8
1980-11-15 18:08:35.690 ,3,0,0.,4.8,0.,4.8,0.,4.8,0.,4.8
1980-11-15 18:08:40.490 ,3,0,0.,4.8,0.,4.8,0.,4.8,0.,4.8
1980-11-15 18:08:45.290 ,3,0,0.,4.8,0.,4.8,0.,4.8,0.,4.8
1980-11-15 18:08:50.090 ,3,0,0.,4.8,1.,4.8,0.,4.8,0.,4.8
1980-11-15 18:08:54.890 ,3,0,0.,4.8,0.,4.8,0.,4.8,0.,4.8
1980-11-15 18:08:59.690 ,3,0,0.,4.8,0.,4.8,0.,4.8,0.,4.8
1980-11-15 18:09:04.490 ,3,0,0.,4.8,0.,4.8,0.,4.8,0.,4.8
1980-11-15 18:09:09.290 ,3,0,1.,4.8,0.,4.8,0.,4.8,0.,4.8
1980-11-15 18:09:14.090 ,3,0,0.,4.8,0.,4.8,0.,4.8,0.,4.8
1980-11-15 18:09:18.890 ,3,0,0.,4.8,0.,4.8,0.,4.8,0.,4.8
1980-11-15 18:09:23.690 ,2,0,0.,4.8,0.,4.8,0.,4.8,0.,4.8
1980-11-15 18:09:28.490 ,2,0,0.,4.8,0.,4.8,0.,4.8,0.,4.8
1980-11-15 18:09:33.290 ,2,0,1.,4.8,0.,4.8,0.,4.8,0.,4.8
1980-11-15 18:09:38.090 ,2,0,0.,4.8,0.,4.8,0.,4.8,0.,4.8
1980-11-15 18:09:42.890 ,2,0,1.,4.8,0.,4.8,0.,4.8,0.,4.8
1980-11-15 18:09:47.690 ,2,0,0.,4.8,0.,4.8,0.,4.8,0.,4.8
1980-11-15 18:09:52.490 ,2,0,0.,4.8,0.,4.8,0.,4.8,0.,4.8
1980-11-15 18:09:57.290 ,2,0,0.,4.8,0.,4.8,0.,4.8,0.,4.8
1980-11-15 18:10:02.090 ,2,0,0.,4.8,0.,4.8,0.,4.8,0.,4.8
1980-11-15 18:10:06.890 ,2,0,1.,4.8,0.,4.8,0.,4.8,0.,4.8
1980-11-15 18:10:11.690 ,1,0,1.,4.8,0.,4.8,0.,4.8,0.,4.8
1980-11-15 18:10:16.490 ,1,0,0.,4.8,0.,4.8,0.,4.8,0.,4.8
1980-11-15 18:10:21.290 ,1,0,0.,4.8,0.,4.8,1.,4.8,0.,4.8
1980-11-15 18:10:26.090 ,1,0,0.,4.8,0.,4.8,0.,4.8,0.,4.8
1980-11-15 18:10:30.890 ,1,0,0.,4.8,0.,4.8,0.,4.8,0.,4.8
1980-11-15 18:10:35.690 ,1,0,0.,4.8,0.,4.8,0.,4.8,0.,4.8
1980-11-15 18:10:40.490 ,1,0,0.,4.8,0.,4.8,0.,4.8,0.,4.8
1980-11-15 18:10:45.290 ,1,0,0.,4.8,0.,4.8,0.,4.8,0.,4.8
1980-11-15 18:10:50.090 ,1,0,0.,4.8,0.,4.8,0.,4.8,0.,4.8
1980-11-15 18:10:54.890 ,1,0,0.,4.8,0.,4.8,0.,4.8,0.,4.8
1980-11-15 18:10:59.690 ,0,0,0.,4.8,0.,4.8,0.,4.8,0.,4.8
1980-11-15 18:11:04.490 ,0,0,0.,4.8,0.,4.8,0.,4.8,0.,4.8
1980-11-15 18:11:09.290 ,0,0,0.,4.8,0.,4.8,0.,4.8,0.,4.8
1980-11-15 18:11:14.090 ,0,0,0.,4.8,0.,4.8,0.,4.8,0.,4.8
1980-11-15 18:11:18.890 ,0,0,0.,4.8,0.,4.8,0.,4.8,0.,4.8
1980-11-15 18:11:23.690 ,0,0,2.,4.8,1.,4.8,1.,4.8,0.,4.8
1980-11-15 18:11:28.490 ,0,0,1.,4.8,0.,4.8,0.,4.8,0.,4.8
1980-11-15 18:11:33.290 ,0,0,0.,4.8,0.,4.8,0.,4.8,0.,4.8
1980-11-15 18:11:38.090 ,0,0,0.,4.8,0.,4.8,0.,4.8,0.,4.8
1980-11-15 18:11:42.890 ,0,0,0.,4.8,0.,4.8,0.,4.8,0.,4.8
1980-11-15 18:11:47.690 ,0,0,0.,4.8,0.,4.8,0.,4.8,0.,4.8
1980-11-15 18:11:52.490 ,0,0,1.,4.8,0.,4.8,0.,4.8,0.,4.8
1980-11-15 18:11:57.290 ,0,0,1.,4.8,0.,4.8,0.,4.8,0.,4.8
1980-11-15 18:12:02.090 ,0,0,0.,4.8,0.,4.8,0.,4.8,0.,4.8
1980-11-15 18:12:06.890 ,0,0,0.,4.8,0.,4.8,0.,4.8,0.,4.8
1980-11-15 18:12:11.690 ,0,0,1.,4.8,0.,4.8,0.,4.8,0.,4.8
1980-11-15 18:12:16.490 ,0,0,1.,4.8,0.,4.8,0.,4.8,0.,4.8
1980-11-15 18:12:21.290 ,0,0,0.,4.8,0.,4.8,0.,4.8,0.,4.8
1980-11-15 18:12:26.090 ,0,0,0.,4.8,0.,4.8,0.,4.8,0.,4.8
1980-11-15 18:12:30.890 ,0,0,1.,4.8,0.,4.8,0.,4.8,0.,4.8
1980-11-15 18:12:35.690 ,1,0,0.,4.8,0.,4.8,0.,4.8,0.,4.8
1980-11-15 18:12:40.490 ,1,0,0.,4.8,0.,4.8,0.,4.8,0.,4.8
1980-11-15 18:12:45.290 ,1,0,0.,4.8,0.,4.8,0.,4.8,0.,4.8
1980-11-15 18:12:50.090 ,1,0,1.,4.8,0.,4.8,0.,4.8,0.,4.8
1980-11-15 18:12:54.890 ,1,0,0.,4.8,0.,4.8,0.,4.8,0.,4.8
1980-11-15 18:12:59.690 ,1,0,0.,4.8,0.,4.8,0.,4.8,0.,4.8
1980-11-15 18:13:04.490 ,1,0,0.,4.8,0.,4.8,0.,4.8,0.,4.8
1980-11-15 18:13:09.290 ,1,0,0.,4.8,0.,4.8,0.,4.8,0.,4.8
1980-11-15 18:13:14.090 ,1,0,0.,4.8,0.,4.8,0.,4.8,0.,4.8
1980-11-15 18:13:18.890 ,1,0,0.,4.8,0.,4.8,0.,4.8,0.,4.8
1980-11-15 18:13:23.690 ,2,0,1.,4.8,0.,4.8,0.,4.8,0.,4.8
1980-11-15 18:13:28.490 ,2,0,2.,4.8,0.,4.8,0.,4.8,0.,4.8
1980-11-15 18:13:33.290 ,2,0,0.,4.8,0.,4.8,1.,4.8,0.,4.8
1980-11-15 18:13:38.090 ,2,0,0.,4.8,0.,4.8,0.,4.8,0.,4.8
1980-11-15 18:13:42.890 ,2,0,1.,4.8,0.,4.8,0.,4.8,0.,4.8
1980-11-15 18:13:47.690 ,2,0,0.,4.8,0.,4.8,1.,4.8,1.,4.8
1980-11-15 18:13:52.490 ,2,0,0.,4.8,0.,4.8,0.,4.8,0.,4.8
1980-11-15 18:13:57.290 ,2,0,1.,4.8,0.,4.8,0.,4.8,0.,4.8
1980-11-15 18:14:02.090 ,2,0,0.,4.8,0.,4.8,0.,4.8,0.,4.8
1980-11-15 18:14:06.890 ,2,0,0.,4.8,0.,4.8,2.,4.8,0.,4.8
1980-11-15 18:14:11.690 ,3,0,0.,4.8,0.,4.8,0.,4.8,0.,4.8
1980-11-15 18:14:16.490 ,3,0,1.,4.8,0.,4.8,0.,4.8,0.,4.8
1980-11-15 18:14:21.290 ,3,0,0.,4.8,0.,4.8,0.,4.8,0.,4.8
1980-11-15 18:14:26.090 ,3,0,1.,4.8,0.,4.8,0.,4.8,0.,4.8
1980-11-15 18:14:30.890 ,3,0,1.,4.8,0.,4.8,0.,4.8,0.,4.8
1980-11-15 18:14:35.690 ,3,0,0.,4.8,0.,4.8,1.,4.8,0.,4.8
1980-11-15 18:14:40.490 ,3,0,0.,4.8,0.,4.8,0.,4.8,0.,4.8
1980-11-15 18:14:45.290 ,3,0,1.,4.8,0.,4.8,0.,4.8,0.,4.8
1980-11-15 18:14:50.090 ,3,0,0.,4.8,1.,4.8,0.,4.8,0.,4.8
1980-11-15 18:14:54.890 ,3,0,0.,4.8,0.,4.8,0.,4.8,0.,4.8
1980-11-15 18:14:59.690 ,4,0,0.,4.8,0.,4.8,0.,4.8,0.,4.8
1980-11-15 18:15:04.490 ,4,0,1.,4.8,0.,4.8,1.,4.8,0.,4.8
1980-11-15 18:15:09.290 ,4,0,1.,4.8,0.,4.8,0.,4.8,0.,4.8
1980-11-15 18:15:14.090 ,4,0,0.,4.8,0.,4.8,0.,4.8,0.,4.8
1980-11-15 18:15:18.890 ,4,0,0.,4.8,0.,4.8,0.,4.8,1.,4.8
1980-11-15 18:15:23.690 ,4,0,0.,4.8,0.,4.8,0.,4.8,0.,4.8
1980-11-15 18:15:28.490 ,4,0,0.,4.8,0.,4.8,0.,4.8,0.,4.8
1980-11-15 18:15:33.290 ,4,0,0.,4.8,0.,4.8,0.,4.8,0.,4.8
1980-11-15 18:15:38.090 ,4,0,0.,4.8,0.,4.8,0.,4.8,0.,4.8
1980-11-15 18:15:42.890 ,4,0,0.,4.8,0.,4.8,0.,4.8,0.,4.8
1980-11-15 18:15:47.690 ,5,0,0.,4.8,1.,4.8,0.,4.8,0.,4.8
1980-11-15 18:15:52.490 ,5,0,0.,4.8,0.,4.8,0.,4.8,0.,4.8
1980-11-15 18:15:57.290 ,5,0,1.,4.8,0.,4.8,0.,4.8,0.,4.8
1980-11-15 18:16:02.090 ,5,0,0.,4.8,0.,4.8,0.,4.8,0.,4.8
1980-11-15 18:16:06.890 ,5,0,1.,4.8,0.,4.8,0.,4.8,0.,4.8
1980-11-15 18:16:11.690 ,5,0,1.,4.8,0.,4.8,0.,4.8,0.,4.8
1980-11-15 18:16:16.490 ,5,0,0.,4.8,0.,4.8,0.,4.8,0.,4.8
1980-11-15 18:16:21.290 ,5,0,0.,4.8,0.,4.8,0.,4.8,0.,4.8
1980-11-15 18:16:26.090 ,5,0,0.,4.8,0.,4.8,0.,4.8,0.,4.8
1980-11-15 18:16:30.890 ,5,0,0.,4.8,0.,4.8,0.,4.8,0.,4.8
1980-11-15 18:16:35.690 ,6,0,1.,4.8,0.,4.8,0.,4.8,0.,4.8
1980-11-15 18:16:40.490 ,6,0,0.,4.8,0.,4.8,0.,4.8,0.,4.8
1980-11-15 18:16:45.290 ,6,0,0.,4.8,0.,4.8,0.,4.8,0.,4.8
1980-11-15 18:16:50.090 ,6,0,0.,4.8,0.,4.8,0.,4.8,0.,4.8
1980-11-15 18:16:54.890 ,6,0,0.,4.8,0.,4.8,0.,4.8,0.,4.8
1980-11-15 18:16:59.690 ,6,0,0.,4.8,0.,4.8,0.,4.8,0.,4.8
1980-11-15 18:17:04.490 ,6,0,0.,4.8,0.,4.8,0.,4.8,0.,4.8
1980-11-15 18:17:09.290 ,6,0,0.,4.8,0.,4.8,0.,4.8,0.,4.8
1980-11-15 18:17:14.090 ,6,0,0.,4.8,0.,4.8,0.,4.8,0.,4.8
1980-11-15 18:17:18.890 ,6,0,0.,4.8,0.,4.8,0.,4.8,0.,4.8
1980-11-15 18:17:23.690 ,7,0,0.,4.8,0.,4.8,0.,4.8,0.,4.8
1980-11-15 18:17:28.490 ,7,0,1.,4.8,0.,4.8,0.,4.8,0.,4.8
1980-11-15 18:17:33.290 ,7,0,1.,4.8,0.,4.8,0.,4.8,0.,4.8
1980-11-15 18:17:38.090 ,7,0,0.,4.8,0.,4.8,0.,4.8,0.,4.8
1980-11-15 18:17:42.890 ,7,0,0.,4.8,0.,4.8,0.,4.8,0.,4.8
1980-11-15 18:17:47.690 ,7,0,0.,4.8,0.,4.8,0.,4.8,0.,4.8
1980-11-15 18:17:52.490 ,7,0,1.,4.8,0.,4.8,0.,4.8,0.,4.8
1980-11-15 18:17:57.290 ,7,0,0.,4.8,0.,4.8,0.,4.8,0.,4.8
1980-11-15 18:18:02.090 ,7,0,0.,4.8,0.,4.8,0.,4.8,0.,4.8
1980-11-15 18:18:06.890 ,7,0,0.,4.8,0.,4.8,0.,4.8,0.,4.8
1980-11-15 18:18:11.690 ,7,0,0.,4.8,0.,4.8,0.,4.8,0.,4.8
1980-11-15 18:18:16.490 ,7,0,1.,4.8,0.,4.8,0.,4.8,0.,4.8
1980-11-15 18:18:21.290 ,7,0,0.,4.8,0.,4.8,0.,4.8,0.,4.8
1980-11-15 18:18:26.090 ,7,0,0.,4.8,0.,4.8,0.,4.8,0.,4.8
1980-11-15 18:18:30.890 ,7,0,1.,4.8,0.,4.8,0.,4.8,0.,4.8
1980-11-15 18:18:35.690 ,7,0,1.,4.8,0.,4.8,0.,4.8,0.,4.8
1980-11-15 18:18:40.490 ,7,0,0.,4.8,0.,4.8,0.,4.8,0.,4.8
1980-11-15 18:18:45.290 ,7,0,1.,4.8,0.,4.8,0.,4.8,0.,4.8
1980-11-15 18:18:50.090 ,7,0,0.,4.8,0.,4.8,0.,4.8,0.,4.8
1980-11-15 18:18:54.890 ,7,0,0.,4.8,0.,4.8,0.,4.8,0.,4.8
1980-11-15 18:18:59.690 ,6,0,1.,4.8,0.,4.8,0.,4.8,0.,4.8
1980-11-15 18:19:04.490 ,6,0,0.,4.8,0.,4.8,0.,4.8,0.,4.8
1980-11-15 18:19:09.290 ,6,0,0.,4.8,0.,4.8,0.,4.8,0.,4.8
1980-11-15 18:19:14.090 ,6,0,0.,4.8,0.,4.8,0.,4.8,0.,4.8
1980-11-15 18:19:18.890 ,6,0,1.,4.8,0.,4.8,0.,4.8,0.,4.8
1980-11-15 18:19:23.690 ,6,0,0.,4.8,0.,4.8,0.,4.8,0.,4.8
1980-11-15 18:19:28.490 ,6,0,0.,4.8,0.,4.8,0.,4.8,0.,4.8
1980-11-15 18:19:33.290 ,6,0,1.,4.8,0.,4.8,0.,4.8,0.,4.8
1980-11-15 18:19:38.090 ,6,0,1.,4.8,0.,4.8,0.,4.8,0.,4.8
1980-11-15 18:19:42.890 ,6,0,0.,4.8,0.,4.8,0.,4.8,0.,4.8
1980-11-15 18:19:47.690 ,5,0,0.,4.8,0.,4.8,0.,4.8,0.,4.8
1980-11-15 18:19:52.490 ,5,0,0.,4.8,0.,4.8,0.,4.8,0.,4.8
1980-11-15 18:19:57.290 ,5,0,0.,4.8,0.,4.8,0.,4.8,0.,4.8
1980-11-15 18:20:02.090 ,5,0,1.,4.8,0.,4.8,0.,4.8,0.,4.8
1980-11-15 18:20:06.890 ,5,0,0.,4.8,0.,4.8,1.,4.8,0.,4.8
1980-11-15 18:20:11.690 ,5,0,1.,4.8,0.,4.8,0.,4.8,1.,4.8
1980-11-15 18:20:16.490 ,5,0,1.,4.8,0.,4.8,0.,4.8,0.,4.8
1980-11-15 18:20:21.290 ,5,0,1.,4.8,0.,4.8,0.,4.8,0.,4.8
1980-11-15 18:20:26.090 ,5,0,0.,4.8,0.,4.8,0.,4.8,0.,4.8
1980-11-15 18:20:30.890 ,5,0,1.,4.8,0.,4.8,0.,4.8,0.,4.8
1980-11-15 18:20:35.690 ,4,0,0.,4.8,0.,4.8,0.,4.8,0.,4.8
1980-11-15 18:20:40.490 ,4,0,0.,4.8,0.,4.8,0.,4.8,0.,4.8
1980-11-15 18:20:45.290 ,4,0,1.,4.8,0.,4.8,0.,4.8,0.,4.8
1980-11-15 18:20:50.090 ,4,0,1.,4.8,0.,4.8,0.,4.8,0.,4.8
1980-11-15 18:20:54.890 ,4,0,1.,4.8,0.,4.8,0.,4.8,0.,4.8
1980-11-15 18:20:59.690 ,4,0,1.,4.8,0.,4.8,0.,4.8,0.,4.8
1980-11-15 18:21:04.490 ,4,0,1.,4.8,0.,4.8,0.,4.8,0.,4.8
1980-11-15 18:21:09.290 ,4,0,0.,4.8,0.,4.8,0.,4.8,0.,4.8
1980-11-15 18:21:14.090 ,4,0,0.,4.8,0.,4.8,0.,4.8,0.,4.8
1980-11-15 18:21:18.890 ,4,0,0.,4.8,0.,4.8,0.,4.8,0.,4.8
1980-11-15 18:21:23.690 ,3,0,0.,4.8,0.,4.8,0.,4.8,0.,4.8
1980-11-15 18:21:28.490 ,3,0,0.,4.8,0.,4.8,1.,4.8,0.,4.8
1980-11-15 18:21:33.290 ,3,0,1.,4.8,0.,4.8,0.,4.8,0.,4.8
1980-11-15 18:21:38.090 ,3,0,0.,4.8,0.,4.8,0.,4.8,0.,4.8
1980-11-15 18:21:42.890 ,3,0,1.,4.8,0.,4.8,0.,4.8,0.,4.8
1980-11-15 18:21:47.690 ,3,0,0.,4.8,0.,4.8,1.,4.8,0.,4.8
1980-11-15 18:21:52.490 ,3,0,0.,4.8,0.,4.8,0.,4.8,0.,4.8
1980-11-15 18:21:57.290 ,3,0,0.,4.8,0.,4.8,0.,4.8,0.,4.8
1980-11-15 18:22:02.090 ,3,0,0.,4.8,0.,4.8,0.,4.8,0.,4.8
1980-11-15 18:22:06.890 ,3,0,0.,4.8,0.,4.8,0.,4.8,0.,4.8
1980-11-15 18:22:11.690 ,2,0,0.,4.8,0.,4.8,0.,4.8,0.,4.8
1980-11-15 18:22:16.490 ,2,0,0.,4.8,0.,4.8,0.,4.8,0.,4.8
1980-11-15 18:22:21.290 ,2,0,0.,4.8,0.,4.8,0.,4.8,0.,4.8
1980-11-15 18:22:26.090 ,2,0,0.,4.8,0.,4.8,0.,4.8,0.,4.8
1980-11-15 18:22:30.890 ,2,0,0.,4.8,0.,4.8,0.,4.8,0.,4.8
1980-11-15 18:22:35.690 ,2,0,0.,4.8,0.,4.8,0.,4.8,0.,4.8
1980-11-15 18:22:40.490 ,2,0,1.,4.8,0.,4.8,0.,4.8,0.,4.8
1980-11-15 18:22:45.290 ,2,0,0.,4.8,0.,4.8,0.,4.8,0.,4.8
1980-11-15 18:22:50.090 ,2,0,0.,4.8,0.,4.8,0.,4.8,0.,4.8
1980-11-15 18:22:54.890 ,2,0,0.,4.8,0.,4.8,0.,4.8,0.,4.8
1980-11-15 18:22:59.690 ,1,0,0.,4.8,0.,4.8,0.,4.8,0.,4.8
1980-11-15 18:23:04.490 ,1,0,0.,4.8,0.,4.8,0.,4.8,0.,4.8
1980-11-15 18:23:09.290 ,1,0,0.,4.8,0.,4.8,0.,4.8,0.,4.8
1980-11-15 18:23:14.090 ,1,0,0.,4.8,0.,4.8,0.,4.8,0.,4.8
1980-11-15 18:23:18.890 ,1,0,0.,4.8,0.,4.8,0.,4.8,0.,4.8
1980-11-15 18:23:23.690 ,1,0,0.,4.8,0.,4.8,0.,4.8,0.,4.8
1980-11-15 18:23:28.490 ,1,0,0.,4.8,0.,4.8,0.,4.8,0.,4.8
1980-11-15 18:23:33.290 ,1,0,0.,4.8,0.,4.8,0.,4.8,0.,4.8
1980-11-15 18:23:38.090 ,1,0,0.,4.8,0.,4.8,1.,4.8,0.,4.8
1980-11-15 18:23:42.890 ,1,0,0.,4.8,0.,4.8,0.,4.8,0.,4.8
1980-11-15 18:23:47.690 ,0,0,0.,4.8,0.,4.8,0.,4.8,0.,4.8
1980-11-15 18:23:52.490 ,0,0,0.,4.8,0.,4.8,0.,4.8,0.,4.8
1980-11-15 18:23:57.290 ,0,0,0.,4.8,0.,4.8,0.,4.8,0.,4.8
1980-11-15 18:24:02.090 ,0,0,1.,4.8,0.,4.8,0.,4.8,0.,4.8
1980-11-15 18:24:06.890 ,0,0,0.,4.8,0.,4.8,0.,4.8,0.,4.8
1980-11-15 18:24:11.690 ,0,0,1.,4.8,0.,4.8,1.,4.8,0.,4.8
1980-11-15 18:24:16.490 ,0,0,0.,4.8,0.,4.8,0.,4.8,0.,4.8
1980-11-15 18:24:21.290 ,0,0,0.,4.8,0.,4.8,1.,4.8,0.,4.8
1980-11-15 18:24:26.090 ,0,0,0.,4.8,0.,4.8,0.,4.8,0.,4.8
1980-11-15 18:24:30.890 ,0,0,0.,4.8,0.,4.8,0.,4.8,0.,4.8
1980-11-15 18:24:35.690 ,0,0,0.,4.8,0.,4.8,1.,4.8,0.,4.8
1980-11-15 18:24:40.490 ,0,0,1.,4.8,0.,4.8,0.,4.8,0.,4.8
1980-11-15 18:24:45.290 ,0,0,1.,4.8,0.,4.8,0.,4.8,0.,4.8
1980-11-15 18:24:50.090 ,0,0,0.,4.8,0.,4.8,0.,4.8,0.,4.8
1980-11-15 18:24:54.890 ,0,0,0.,4.8,0.,4.8,1.,4.8,0.,4.8
1980-11-15 18:24:59.690 ,0,0,1.,4.8,0.,4.8,0.,4.8,0.,4.8
1980-11-15 18:25:04.490 ,0,0,1.,4.8,0.,4.8,0.,4.8,0.,4.8
1980-11-15 18:25:09.290 ,0,0,2.,4.8,0.,4.8,0.,4.8,0.,4.8
1980-11-15 18:25:14.090 ,0,0,0.,4.8,0.,4.8,0.,4.8,0.,4.8
1980-11-15 18:25:18.890 ,0,0,0.,4.8,0.,4.8,0.,4.8,0.,4.8
1980-11-15 18:25:23.690 ,1,0,0.,4.8,0.,4.8,0.,4.8,0.,4.8
1980-11-15 18:25:28.490 ,1,0,0.,4.8,0.,4.8,0.,4.8,0.,4.8
1980-11-15 18:25:33.290 ,1,0,0.,4.8,0.,4.8,0.,4.8,0.,4.8
1980-11-15 18:25:38.090 ,1,0,0.,4.8,0.,4.8,1.,4.8,0.,4.8
1980-11-15 18:25:42.890 ,1,0,1.,4.8,0.,4.8,0.,4.8,0.,4.8
1980-11-15 18:25:47.690 ,1,0,0.,4.8,0.,4.8,0.,4.8,0.,4.8
1980-11-15 18:25:52.490 ,1,0,1.,4.8,0.,4.8,0.,4.8,0.,4.8
1980-11-15 18:25:57.290 ,1,0,0.,4.8,0.,4.8,0.,4.8,0.,4.8
1980-11-15 18:26:02.090 ,1,0,1.,4.8,0.,4.8,1.,4.8,0.,4.8
1980-11-15 18:26:06.890 ,1,0,0.,4.8,1.,4.8,0.,4.8,0.,4.8
1980-11-15 18:26:11.690 ,2,0,0.,4.8,0.,4.8,1.,4.8,0.,4.8
1980-11-15 18:26:16.490 ,2,0,0.,4.8,0.,4.8,0.,4.8,0.,4.8
1980-11-15 18:26:21.290 ,2,0,0.,4.8,0.,4.8,0.,4.8,0.,4.8
1980-11-15 18:26:26.090 ,2,0,0.,4.8,0.,4.8,0.,4.8,0.,4.8
1980-11-15 18:26:30.890 ,2,0,0.,4.8,0.,4.8,0.,4.8,0.,4.8
1980-11-15 18:26:35.690 ,2,0,1.,4.8,0.,4.8,0.,4.8,0.,4.8
1980-11-15 18:26:40.490 ,2,0,0.,4.8,0.,4.8,0.,4.8,0.,4.8
1980-11-15 18:26:45.290 ,2,0,0.,4.8,0.,4.8,0.,4.8,0.,4.8
1980-11-15 18:26:50.090 ,2,0,2.,4.8,0.,4.8,0.,4.8,0.,4.8
1980-11-15 18:26:54.890 ,2,0,0.,4.8,0.,4.8,0.,4.8,0.,4.8
1980-11-15 18:26:59.690 ,3,0,0.,4.8,0.,4.8,0.,4.8,0.,4.8
1980-11-15 18:27:04.490 ,3,0,1.,4.8,0.,4.8,0.,4.8,0.,4.8
1980-11-15 18:27:09.290 ,3,0,1.,4.8,0.,4.8,0.,4.8,0.,4.8
1980-11-15 18:27:14.090 ,3,0,0.,4.8,0.,4.8,0.,4.8,0.,4.8
1980-11-15 18:27:18.890 ,3,0,0.,4.8,0.,4.8,1.,4.8,0.,4.8
1980-11-15 18:27:23.690 ,3,0,0.,4.8,0.,4.8,0.,4.8,0.,4.8
1980-11-15 18:27:28.490 ,3,0,0.,4.8,0.,4.8,0.,4.8,0.,4.8
1980-11-15 18:27:33.290 ,3,0,0.,4.8,0.,4.8,0.,4.8,0.,4.8
1980-11-15 18:27:38.090 ,3,0,1.,4.8,0.,4.8,0.,4.8,0.,4.8
1980-11-15 18:27:42.890 ,3,0,1.,4.8,0.,4.8,0.,4.8,0.,4.8
1980-11-15 18:27:47.690 ,4,0,0.,4.8,0.,4.8,0.,4.8,0.,4.8
1980-11-15 18:27:52.490 ,4,0,1.,4.8,0.,4.8,0.,4.8,0.,4.8
1980-11-15 18:27:57.290 ,4,0,0.,4.8,0.,4.8,0.,4.8,0.,4.8
1980-11-15 18:28:02.090 ,4,0,0.,4.8,0.,4.8,0.,4.8,0.,4.8
1980-11-15 18:28:06.890 ,4,0,0.,4.8,1.,4.8,1.,4.8,0.,4.8
1980-11-15 18:28:11.690 ,4,0,1.,4.8,0.,4.8,0.,4.8,0.,4.8
1980-11-15 18:28:16.490 ,4,0,1.,4.8,0.,4.8,0.,4.8,0.,4.8
1980-11-15 18:28:21.290 ,4,0,0.,4.8,0.,4.8,0.,4.8,0.,4.8
1980-11-15 18:28:26.090 ,4,0,2.,4.8,0.,4.8,0.,4.8,0.,4.8
1980-11-15 18:28:30.890 ,4,0,2.,4.8,0.,4.8,0.,4.8,0.,4.8
1980-11-15 18:28:35.690 ,5,0,0.,4.8,0.,4.8,0.,4.8,0.,4.8
1980-11-15 18:28:40.490 ,5,0,1.,4.8,0.,4.8,0.,4.8,0.,4.8
1980-11-15 18:28:45.290 ,5,0,0.,4.8,1.,4.8,0.,4.8,0.,4.8
1980-11-15 18:28:50.090 ,5,0,0.,4.8,0.,4.8,0.,4.8,0.,4.8
1980-11-15 18:28:54.890 ,5,0,0.,4.8,0.,4.8,0.,4.8,0.,4.8
1980-11-15 18:28:59.690 ,5,0,0.,4.8,0.,4.8,0.,4.8,0.,4.8
1980-11-15 18:29:04.490 ,5,0,0.,4.8,0.,4.8,0.,4.8,0.,4.8
1980-11-15 18:29:09.290 ,5,0,0.,4.8,0.,4.8,0.,4.8,0.,4.8
1980-11-15 18:29:14.090 ,5,0,1.,4.8,0.,4.8,0.,4.8,0.,4.8
1980-11-15 18:29:18.890 ,5,0,0.,4.8,0.,4.8,0.,4.8,0.,4.8
1980-11-15 18:29:23.690 ,6,0,1.,4.8,0.,4.8,0.,4.8,0.,4.8
1980-11-15 18:29:28.490 ,6,0,0.,4.8,0.,4.8,0.,4.8,0.,4.8
1980-11-15 18:29:33.290 ,6,0,0.,4.8,0.,4.8,0.,4.8,0.,4.8
1980-11-15 18:29:38.090 ,6,0,0.,4.8,0.,4.8,1.,4.8,0.,4.8
1980-11-15 18:29:42.890 ,6,0,1.,4.8,0.,4.8,0.,4.8,0.,4.8
1980-11-15 18:29:47.690 ,6,0,2.,4.8,0.,4.8,0.,4.8,0.,4.8
1980-11-15 18:29:52.490 ,6,0,0.,4.8,0.,4.8,0.,4.8,0.,4.8
1980-11-15 18:29:57.290 ,6,0,0.,4.8,0.,4.8,0.,4.8,0.,4.8
1980-11-15 18:30:02.090 ,6,0,0.,4.8,0.,4.8,0.,4.8,0.,4.8
1980-11-15 18:30:06.890 ,6,0,0.,4.8,0.,4.8,0.,4.8,0.,4.8
1980-11-15 18:30:11.690 ,7,0,0.,4.8,0.,4.8,0.,4.8,0.,4.8
1980-11-15 18:30:16.490 ,7,0,0.,4.8,0.,4.8,0.,4.8,0.,4.8
1980-11-15 18:30:21.290 ,7,0,0.,4.8,0.,4.8,0.,4.8,0.,4.8
1980-11-15 18:30:26.090 ,7,0,1.,4.8,0.,4.8,0.,4.8,0.,4.8
1980-11-15 18:30:30.890 ,7,0,0.,4.8,0.,4.8,0.,4.8,0.,4.8
1980-11-15 18:30:35.690 ,7,0,0.,4.8,0.,4.8,1.,4.8,0.,4.8
1980-11-15 18:30:40.490 ,7,0,1.,4.8,0.,4.8,0.,4.8,0.,4.8
1980-11-15 18:30:45.290 ,7,0,1.,4.8,0.,4.8,0.,4.8,0.,4.8
1980-11-15 18:30:50.090 ,7,0,0.,4.8,0.,4.8,0.,4.8,0.,4.8
1980-11-15 18:30:54.890 ,7,0,0.,4.8,0.,4.8,0.,4.8,0.,4.8
1980-11-15 18:30:59.690 ,7,0,0.,4.8,0.,4.8,0.,4.8,0.,4.8
1980-11-15 18:31:04.490 ,7,0,0.,4.8,0.,4.8,0.,4.8,0.,4.8
1980-11-15 18:31:09.290 ,7,0,0.,4.8,0.,4.8,0.,4.8,0.,4.8
1980-11-15 18:31:14.090 ,7,0,2.,4.8,0.,4.8,0.,4.8,0.,4.8
1980-11-15 18:31:18.890 ,7,0,0.,4.8,0.,4.8,2.,4.8,0.,4.8
1980-11-15 18:31:23.690 ,7,0,1.,4.8,0.,4.8,0.,4.8,0.,4.8
1980-11-15 18:31:28.490 ,7,0,1.,4.8,0.,4.8,0.,4.8,0.,4.8
1980-11-15 18:31:33.290 ,7,0,0.,4.8,0.,4.8,0.,4.8,0.,4.8
1980-11-15 18:31:38.090 ,7,0,0.,4.8,0.,4.8,0.,4.8,0.,4.8
1980-11-15 18:31:42.890 ,7,0,0.,4.8,0.,4.8,0.,4.8,0.,4.8
1980-11-15 18:31:47.690 ,6,0,1.,4.8,0.,4.8,0.,4.8,0.,4.8
1980-11-15 18:31:52.490 ,6,0,0.,4.8,0.,4.8,0.,4.8,0.,4.8
1980-11-15 18:31:57.290 ,6,0,1.,4.8,0.,4.8,0.,4.8,0.,4.8
1980-11-15 18:32:02.090 ,6,0,0.,4.8,0.,4.8,0.,4.8,1.,4.8
1980-11-15 18:32:06.890 ,6,0,0.,4.8,0.,4.8,0.,4.8,0.,4.8
1980-11-15 18:32:11.690 ,6,0,0.,4.8,0.,4.8,0.,4.8,0.,4.8
1980-11-15 18:32:16.490 ,6,0,0.,4.8,0.,4.8,0.,4.8,0.,4.8
1980-11-15 18:32:21.290 ,6,0,0.,4.8,0.,4.8,0.,4.8,0.,4.8
1980-11-15 18:32:26.090 ,6,0,1.,4.8,0.,4.8,0.,4.8,0.,4.8
1980-11-15 18:32:30.890 ,6,0,0.,4.8,0.,4.8,0.,4.8,0.,4.8
1980-11-15 18:32:35.690 ,5,0,1.,4.8,0.,4.8,0.,4.8,0.,4.8
1980-11-15 18:32:40.490 ,5,0,0.,4.8,0.,4.8,0.,4.8,0.,4.8
1980-11-15 18:32:45.290 ,5,0,0.,4.8,0.,4.8,0.,4.8,0.,4.8
1980-11-15 18:32:50.090 ,5,0,0.,4.8,0.,4.8,1.,4.8,0.,4.8
1980-11-15 18:32:54.890 ,5,0,0.,4.8,0.,4.8,0.,4.8,0.,4.8
1980-11-15 18:32:59.690 ,5,0,0.,4.8,0.,4.8,0.,4.8,0.,4.8
1980-11-15 18:33:04.490 ,5,0,0.,4.8,0.,4.8,0.,4.8,0.,4.8
1980-11-15 18:33:09.290 ,5,0,1.,4.8,0.,4.8,0.,4.8,0.,4.8
1980-11-15 18:33:14.090 ,5,0,1.,4.8,0.,4.8,0.,4.8,0.,4.8
1980-11-15 18:33:18.890 ,5,0,0.,4.8,0.,4.8,0.,4.8,0.,4.8
1980-11-15 18:33:23.690 ,4,0,0.,4.8,0.,4.8,0.,4.8,0.,4.8
1980-11-15 18:33:28.490 ,4,0,2.,4.8,0.,4.8,0.,4.8,0.,4.8